• In Russia
  • List of Countries
  • For 7 days
  • Water Temperature
  • Satellite Maps
  • Weather Map
  • Weather Widgets
  • user-avatar
    Login

    Hourly Weather Top

    Today, 22 May, Tuesday

    Time Temperature Precipitation Wind Pressure Humidity
    00:00 +20°C° 0 mm 0 mps 682 mmHg 84%
    01:00 +22°C° 0 mm 1 mps 682 mmHg 86%
    02:00 +20°C° 0 mm 0 mps 682 mmHg 87%
    03:00 +20°C° 0 mm 0 mps 682 mmHg 87%
    04:00 +19°C° 0 mm 0 mps 682 mmHg 87%
    05:00 +21°C° 0.1 mm 0 mps 682 mmHg 81%
    06:00 +22°C° 0.1 mm 0 mps 683 mmHg 76%
    07:00 +24°C° 0 mm 0 mps 684 mmHg 67%
    08:00 +27°C° 0 mm 0 mps 684 mmHg 59%
    09:00 +29°C° 0 mm 0 mps 684 mmHg 52%
    10:00 +33°C° 0 mm 1 mps 685 mmHg 44%
    11:00 +32°C° 0.4 mm 0 mps 684 mmHg 42%
    12:00 +33°C° 0.4 mm 0 mps 684 mmHg 41%
    13:00 +33°C° 0 mm 0 mps 684 mmHg 41%
    14:00 +32°C° 0.1 mm 0 mps 683 mmHg 43%
    15:00 +31°C° 0.1 mm 0 mps 683 mmHg 45%
    16:00 +32°C° 0.1 mm 1 mps 682 mmHg 46%
    17:00 +27°C° 0.3 mm 0 mps 682 mmHg 56%
    18:00 +25°C° 0.3 mm 0 mps 682 mmHg 66%
    19:00 +24°C° 0 mm 1 mps 682 mmHg 77%
    20:00 +22°C° 1.4 mm 0 mps 682 mmHg 81%
    21:00 +21°C° 1.4 mm 0 mps 683 mmHg 84%
    22:00 +21°C° 1.4 mm 0 mps 683 mmHg 88%
    23:00 +20°C° 0.9 mm 0 mps 683 mmHg 88%

    Tomorrow, 23 May, Wednesday

    Time Temperature Precipitation Wind Pressure Humidity
    00:00 +20°C° 0.9 mm 0 mps 683 mmHg 89%
    01:00 +20°C° 0.9 mm 0 mps 683 mmHg 90%
    02:00 +20°C° 0 mm 0 mps 683 mmHg 90%
    03:00 +20°C° 0 mm 0 mps 682 mmHg 91%
    04:00 +20°C° 0 mm 0 mps 682 mmHg 91%
    05:00 +21°C° 0 mm 0 mps 682 mmHg 87%
    06:00 +22°C° 0 mm 0 mps 683 mmHg 83%
    07:00 +23°C° 0 mm 0 mps 683 mmHg 78%
    08:00 +26°C° 0 mm 0 mps 684 mmHg 66%
    09:00 +29°C° 0 mm 0 mps 684 mmHg 53%
    10:00 +32°C° 0 mm 0 mps 685 mmHg 41%
    11:00 +32°C° 0.5 mm 0 mps 684 mmHg 41%
    12:00 +33°C° 0.5 mm 0 mps 684 mmHg 41%
    13:00 +35°C° 0.5 mm 1 mps 683 mmHg 40%
    14:00 +31°C° 0.1 mm 0 mps 683 mmHg 46%
    15:00 +29°C° 0.1 mm 0 mps 682 mmHg 51%
    16:00 +28°C° 0.1 mm 0 mps 681 mmHg 56%
    17:00 +26°C° 0.4 mm 0 mps 681 mmHg 65%
    18:00 +24°C° 0.4 mm 0 mps 681 mmHg 74%
    19:00 +24°C° 0.4 mm 1 mps 681 mmHg 83%
    20:00 +24°C° 0.6 mm 1 mps 681 mmHg 85%
    21:00 +23°C° 0.6 mm 1 mps 682 mmHg 87%
    22:00 +21°C° 0.6 mm 0 mps 682 mmHg 90%
    23:00 +21°C° 0.6 mm 0 mps 682 mmHg 90%

    Day after tomorrow, 24 May, Thursday

    Time Temperature Precipitation Wind Pressure Humidity
    00:00 +21°C° 0.6 mm 0 mps 682 mmHg 90%
    01:00 +21°C° 0.6 mm 0 mps 681 mmHg 90%
    02:00 +20°C° 0.6 mm 0 mps 681 mmHg 91%
    03:00 +20°C° 0.6 mm 0 mps 681 mmHg 93%
    04:00 +20°C° 0.6 mm 0 mps 681 mmHg 94%
    05:00 +21°C° 0 mm 0 mps 681 mmHg 90%
    06:00 +22°C° 0 mm 0 mps 682 mmHg 87%
    07:00 +23°C° 0 mm 0 mps 683 mmHg 83%
    08:00 +27°C° 0 mm 1 mps 683 mmHg 72%
    09:00 +30°C° 0 mm 1 mps 684 mmHg 60%
    10:00 +32°C° 0 mm 1 mps 684 mmHg 49%
    11:00 +33°C° 0.4 mm 1 mps 684 mmHg 47%
    12:00 +34°C° 0.4 mm 1 mps 683 mmHg 45%
    13:00 +35°C° 0.4 mm 1 mps 683 mmHg 44%
    14:00 +33°C° 0.7 mm 1 mps 682 mmHg 49%
    15:00 +32°C° 0.7 mm 1 mps 682 mmHg 54%
    16:00 +30°C° 0.7 mm 1 mps 681 mmHg 60%
    17:00 +28°C° 1.8 mm 1 mps 681 mmHg 67%
    18:00 +24°C° 1.8 mm 0 mps 681 mmHg 75%
    19:00 +22°C° 1.8 mm 0 mps 681 mmHg 82%
    20:00 +22°C° 1.8 mm 0 mps 681 mmHg 85%
    21:00 +21°C° 1.8 mm 0 mps 682 mmHg 88%
    22:00 +20°C° 1.8 mm 0 mps 682 mmHg 91%
    23:00 +20°C° 1 mm 0 mps 682 mmHg 92%

    25 May, Friday

    Time Temperature Precipitation Wind Pressure Humidity
    00:00 +20°C° 1 mm 0 mps 682 mmHg 92%
    01:00 +20°C° 1 mm 0 mps 681 mmHg 92%
    02:00 +20°C° 0.1 mm 0 mps 681 mmHg 93%
    03:00 +20°C° 0.1 mm 0 mps 681 mmHg 93%
    04:00 +20°C° 0.1 mm 0 mps 680 mmHg 94%
    05:00 +21°C° 0.1 mm 0 mps 681 mmHg 91%
    06:00 +21°C° 0.1 mm 0 mps 682 mmHg 88%
    07:00 +22°C° 0.1 mm 0 mps 682 mmHg 85%
    08:00 +26°C° 0.2 mm 1 mps 683 mmHg 76%
    09:00 +28°C° 0.2 mm 1 mps 683 mmHg 66%
    10:00 +30°C° 0.2 mm 1 mps 684 mmHg 57%
    11:00 +31°C° 0.9 mm 1 mps 683 mmHg 59%
    12:00 +31°C° 0.9 mm 1 mps 683 mmHg 60%
    13:00 +32°C° 0.9 mm 1 mps 683 mmHg 62%
    14:00 +30°C° 1.7 mm 1 mps 682 mmHg 68%
    15:00 +28°C° 1.7 mm 1 mps 682 mmHg 73%
    16:00 +26°C° 1.7 mm 1 mps 681 mmHg 79%
    17:00 +25°C° 0.3 mm 1 mps 681 mmHg 83%
    18:00 +24°C° 0.3 mm 1 mps 681 mmHg 86%
    19:00 +21°C° 0.3 mm 0 mps 681 mmHg 89%
    20:00 +21°C° 0 mm 0 mps 681 mmHg 90%
    21:00 +21°C° 0 mm 0 mps 682 mmHg 91%
    22:00 +22°C° 0 mm 1 mps 682 mmHg 91%
    23:00 +22°C° 0 mm 1 mps 682 mmHg 91%

    26 May, Saturday

    Time Temperature Precipitation Wind Pressure Humidity
    00:00 +22°C° 0 mm 1 mps 681 mmHg 91%
    01:00 +21°C° 0 mm 1 mps 681 mmHg 90%
    02:00 +19°C° 0.1 mm 0 mps 681 mmHg 89%
    03:00 +19°C° 0.1 mm 0 mps 681 mmHg 88%
    04:00 +19°C° 0.1 mm 0 mps 681 mmHg 87%
    05:00 +20°C° 0 mm 0 mps 682 mmHg 84%
    06:00 +21°C° 0 mm 0 mps 682 mmHg 82%
    07:00 +22°C° 0 mm 0 mps 683 mmHg 79%
    08:00 +24°C° 0 mm 0 mps 683 mmHg 71%
    09:00 +28°C° 0 mm 1 mps 684 mmHg 63%
    10:00 +29°C° 0 mm 1 mps 684 mmHg 55%
    11:00 +30°C° 0 mm 1 mps 684 mmHg 51%
    12:00 +32°C° 0 mm 1 mps 683 mmHg 47%
    13:00 +33°C° 0 mm 1 mps 683 mmHg 42%
    14:00 +33°C° 0 mm 1 mps 683 mmHg 41%
    15:00 +33°C° 0 mm 1 mps 682 mmHg 40%
    16:00 +33°C° 0 mm 1 mps 682 mmHg 39%
    17:00 +31°C° 0 mm 1 mps 682 mmHg 48%
    18:00 +28°C° 0 mm 1 mps 682 mmHg 57%
    19:00 +24°C° 0 mm 0 mps 681 mmHg 65%
    20:00 +23°C° 0 mm 0 mps 682 mmHg 69%
    21:00 +22°C° 0 mm 0 mps 682 mmHg 73%
    22:00 +21°C° 0 mm 0 mps 682 mmHg 77%
    23:00 +21°C° 0 mm 0 mps 682 mmHg 78%

    27 May, Sunday

    Time Temperature Precipitation Wind Pressure Humidity
    00:00 +21°C° 0 mm 0 mps 682 mmHg 79%
    01:00 +23°C° 0 mm 1 mps 681 mmHg 81%
    02:00 +23°C° 0 mm 1 mps 681 mmHg 81%
    03:00 +23°C° 0 mm 1 mps 681 mmHg 80%
    04:00 +21°C° 0 mm 0 mps 681 mmHg 80%
    05:00 +22°C° 0 mm 0 mps 682 mmHg 77%
    06:00 +22°C° 0 mm 0 mps 683 mmHg 73%
    07:00 +23°C° 0 mm 0 mps 683 mmHg 69%
    08:00 +27°C° 0 mm 1 mps 684 mmHg 62%
    09:00 +30°C° 0 mm 1 mps 684 mmHg 55%
    10:00 +32°C° 0 mm 1 mps 685 mmHg 47%
    11:00 +33°C° 0 mm 1 mps 684 mmHg 43%
    12:00 +34°C° 0 mm 1 mps 684 mmHg 40%
    13:00 +36°C° 0 mm 2 mps 683 mmHg 36%
    14:00 +34°C° 0 mm 1 mps 683 mmHg 38%
    15:00 +33°C° 0 mm 1 mps 683 mmHg 41%
    16:00 +33°C° 0 mm 1 mps 682 mmHg 43%
    17:00 +30°C° 0.2 mm 1 mps 682 mmHg 53%
    18:00 +28°C° 0.2 mm 1 mps 682 mmHg 63%
    19:00 +23°C° 0.2 mm 0 mps 682 mmHg 73%
    20:00 +23°C° 0.3 mm 0 mps 682 mmHg 77%
    21:00 +24°C° 0.3 mm 1 mps 682 mmHg 80%
    22:00 +23°C° 0.3 mm 1 mps 683 mmHg 84%
    23:00 +23°C° 0.3 mm 1 mps 682 mmHg 86%
    Show more